Find Starlink 38247

NORAD ID: 100303 Int'l Des: 2026-184 Owner: SPXS Country: US Constellation: starlink operational

当前视图

正在加载3D地球...

About Starlink 38247

Starlink 38247 (NORAD 100303) is a starlink constellation satellite launched Aug 12, 2026 by SPXS of US. with a mass of 575.00 kg.

即将过境

Passes for default location (London). Set your location on the main map for personalized predictions.

高度历史

Loading altitude history...

两行轨道根数

1 A0303U 26184C 26262.37658150 .00017005 00000-0 52754-3 0 9999
2 A0303 97.2857 127.4414 0001457 100.3672 259.7735 15.33464909 7183
Epoch: Sep 19, 2026 • Age: 30 hours

当前状态

高度 472.6 km
远地点 / 近地点 N/A
速度 7.64 km/s
星下点 50.35°N, 87.66°E
发射日期 Aug 12, 2026
运行时间 0.1 years
类型 internet

技术详情

分类 Payload
质量 575.00 kg
干质量 530.00 kg
长度 0.30 m
跨度 29.00 m
形状 ? Box + pan
制造商 SPXS
平台类型 Starlink V2MO
阶段状态 In Orbit
所有者/国家 SPXS/US

Most Searched